Вернуться в каталог

STARLINK-5776

АктивенСвязьVLEO
NORAD 57151·PAYLOAD·🇺🇸 United States

Запущен Jun 23, 2023 с Cape Canaveral Space Force Station

Loading…

Ближайшие Пролёты (ближайшие 24 часа)

TLE

СвежийSource: CelesTrak SupGP

Эпоха: Sep 15, 2026, 02:51 UTC

1 57151C 23090BC  26258.11923611 -.00008782  00000+0 -31801-3 0  2580
2 57151  42.9998 273.6362 0001515 267.0697  71.8861 15.27588653    12

Отслеживайте STARLINK-5776 в реальном времени с AllMySat

Download on the App Store